Find Starlink 3845

NORAD ID: 52541 Int'l Des: 2022-051 Owner: SPXS Country: US Constellation: starlink operational
LEOCIRCULAR

实时位置

正在加载3D地球...

关于 Starlink 3845

正在加载描述...

即将过境

Passes for default location (London). Set your location on the main map for personalized predictions.

高度历史

Loading altitude history...

两行轨道根数

1 52541U 22051J 26124.62545369 .00000653 00000-0 59126-4 0 9993
2 52541 53.2195 243.0170 0001368 94.1480 265.9669 15.08833008219815
Epoch: May 4, 2026 • Age: 8 hours

当前状态

高度 559.3 km
速度 7.58 km/s
星下点 -53.35°S, 51.5°W
发射日期 May 13, 2022
运行时间 3.9 years
类型 internet

技术详情

分类 Payload
质量 297.00 kg
干质量 275.00 kg
总质量 297.00 kg
长度 0.20 m
直径 2.80 m
跨度 9.00 m
形状 Box + pan
制造商 SPXS
平台类型 Starlink
阶段状态 In Orbit
所有者/国家 SPXS/US

Most Searched